Regional Weather Roundup
Issued by NWS Cleveland, OH

Home | Current Version | Previous Version | Graphics & Text | Print | Product List | Glossary On
Versions: 1 2 3 4 5 6 7 8 9 10 11 12 13 14 15 16 17 18 19 20 21 22 23 24 25 26 27 28 29 30 31 32 33 34 35 36 37 38 39 40 41 42 43 44 45 46 47 48 49 50
000
ASUS41 KCLE 072110
RWRCLE
OHIO REGIONAL WEATHER ROUNDUP
NATIONAL WEATHER SERVICE WILMINGTON, OH
500 PM EDT TUE JUL 07 2015

NOTE: "FAIR" INDICATES FEW OR NO CLOUDS BELOW 12,000 FEET WITH NO
SIGNIFICANT WEATHER AND/OR OBSTRUCTIONS TO VISIBILITY.

OHZ001>008-015>018-024>027-034-035-043-044-072200-
   NORTHWEST OHIO

CITY           SKY/WX    TMP DP  RH WIND       PRES   REMARKS
DEFIANCE       CLOUDY    70  65  84 NW10      29.93R
FINDLAY        LGT RAIN  73  70  90 W6        29.91S
TOLEDO EXPRESS LGT RAIN  67  66  97 N7        29.92R
TOLEDO EXEC    LGT RAIN  69  64  84 NW20G29   29.93R
LIMA           LGT RAIN  72  70  93 SW5       29.92F
$$

OHZ009>014-019>023-028>033-038-089-072200-
   NORTHEAST OHIO

CITY           SKY/WX    TMP DP  RH WIND       PRES   REMARKS
CLE-HOPKINS    LGT RAIN  71  69  93 SW6       29.93F
CLE-LAKEFRONT  LGT RAIN  72  69  90 SW8       29.90S
CUY CO. ARPT   LGT RAIN  72  72 100 W10       29.92F FOG
LORAIN-ELYRIA  LGT RAIN  72  71  97 W8        29.92S
ASHTABULA      LGT RAIN  74  72  93 W10       29.91F
AKRON-CANTON   CLOUDY    83  69  62 SW16      29.92S
WOOSTER        CLOUDY    75  70  84 W13G18    29.93S
MANSFIELD      CLOUDY    70  69  97 W3        29.94F
YOUNGSTOWN     LGT RAIN  82  70  66 SW9       29.91F
$$

OHZ042-051>053-060>062-070>072-077>081-072200-
  SOUTHWEST OHIO

CITY           SKY/WX    TMP DP  RH WIND       PRES   REMARKS
CINC-COVINGTON CLOUDY    77  72  84 SW12G20   29.96S
CINC-LUNKEN    CLOUDY    76  73  91 SW10      29.95F
HAMILTON       CLOUDY    79  72  79 MISG      29.95R
DAYTON         CLOUDY    75  73  93 W10       29.95R FOG
WRIGHT-PAT AFB CLOUDY    78  72  81 SW10      29.92F
DAYTON GENERAL CLOUDY    78  70  76 SW7       29.94S
WILMINGTON     CLOUDY    77  71  82 SW12      29.95S
$$

OHZ036-037-039>041-045>050-054>059-063>069-073>076-082>088-072200-
  CENTRAL AND SOUTHEAST OHIO

CITY           SKY/WX    TMP DP  RH WIND       PRES   REMARKS
COLUMBUS       RAIN      73  72  94 W9        29.94R
OSU AIRPORT    RAIN      72  69  90 S6        29.94F FOG
BOLTON FIELD   LGT RAIN  73  72  94 SW6       29.95R
RICKENBACK AFB CLOUDY    74  72  93 S7        29.94R
NEWARK         TSTM      72  70  93 SW13      29.94R FOG
MARION         CLOUDY    72  69  90 W5        29.93S
LANCASTER      CLOUDY    74  70  87 SW6       29.96R
ZANESVILLE     CLOUDY    82  69  64 S12       29.94S
NEW PHILLY     CLOUDY    82  71  69 S9G20     29.93F
$$


USA.gov is the U.S. government's official web portal to all federal, state and local government web resources and services.